• In Uzbekistan
  • List of Countries
  • For 7 days
  • Water Temperature
  • Satellite Maps
  • Weather Map
  • Weather Widgets
  • user-avatar
    Login

    Hourly Weather Innsbruck

    Today, 14 December, Friday

    Time Temperature Precipitation Wind Pressure Humidity
    00:00 -18°C° 0 mm 2 mps 586 mmHg 76%
    01:00 -18°C° 0 mm 2 mps 586 mmHg 75%
    02:00 -18°C° 0 mm 2 mps 586 mmHg 74%
    03:00 -18°C° 0 mm 2 mps 585 mmHg 73%
    04:00 -18°C° 0 mm 2 mps 585 mmHg 72%
    05:00 -17°C° 0 mm 1 mps 585 mmHg 70%
    06:00 -17°C° 0 mm 1 mps 586 mmHg 68%
    07:00 -17°C° 0 mm 1 mps 586 mmHg 67%
    08:00 -15°C° 0 mm 1 mps 586 mmHg 66%
    09:00 -13°C° 0 mm 1 mps 587 mmHg 65%
    10:00 -12°C° 0 mm 1 mps 588 mmHg 64%
    11:00 -10°C° 0 mm 1 mps 589 mmHg 60%
    12:00 -9°C° 0 mm 1 mps 589 mmHg 57%
    13:00 -7°C° 0 mm 1 mps 590 mmHg 54%
    14:00 -9°C° 0 mm 1 mps 589 mmHg 62%
    15:00 -11°C° 0 mm 1 mps 589 mmHg 70%
    16:00 -12°C° 0 mm 1 mps 588 mmHg 78%
    17:00 -13°C° 0 mm 1 mps 588 mmHg 79%
    18:00 -15°C° 0 mm 1 mps 588 mmHg 79%
    19:00 -16°C° 0 mm 1 mps 588 mmHg 79%
    20:00 -16°C° 0 mm 1 mps 588 mmHg 75%
    21:00 -16°C° 0 mm 1 mps 588 mmHg 71%
    22:00 -16°C° 0 mm 1 mps 588 mmHg 67%
    23:00 -16°C° 0 mm 1 mps 588 mmHg 65%

    Tomorrow, 15 December, Saturday

    Time Temperature Precipitation Wind Pressure Humidity
    00:00 -16°C° 0 mm 1 mps 588 mmHg 64%
    01:00 -19°C° 0 mm 2 mps 589 mmHg 62%
    02:00 -19°C° 0 mm 2 mps 589 mmHg 63%
    03:00 -19°C° 0 mm 2 mps 589 mmHg 64%
    04:00 -19°C° 0 mm 2 mps 589 mmHg 64%
    05:00 -19°C° 0 mm 2 mps 589 mmHg 66%
    06:00 -19°C° 0 mm 2 mps 589 mmHg 67%
    07:00 -19°C° 0 mm 2 mps 590 mmHg 68%
    08:00 -15°C° 0 mm 1 mps 590 mmHg 69%
    09:00 -14°C° 0 mm 1 mps 591 mmHg 71%
    10:00 -12°C° 0 mm 1 mps 592 mmHg 72%
    11:00 -11°C° 0 mm 1 mps 592 mmHg 70%
    12:00 -9°C° 0 mm 1 mps 592 mmHg 68%
    13:00 -8°C° 0 mm 1 mps 592 mmHg 66%
    14:00 -9°C° 0 mm 1 mps 592 mmHg 71%
    15:00 -10°C° 0 mm 1 mps 591 mmHg 76%
    16:00 -12°C° 0 mm 1 mps 590 mmHg 80%
    17:00 -13°C° 0 mm 1 mps 590 mmHg 77%
    18:00 -13°C° 0 mm 1 mps 590 mmHg 73%
    19:00 -14°C° 0 mm 1 mps 590 mmHg 69%
    20:00 -14°C° 0 mm 1 mps 590 mmHg 65%
    21:00 -14°C° 0 mm 1 mps 590 mmHg 60%
    22:00 -16°C° 0 mm 2 mps 590 mmHg 55%
    23:00 -15°C° 0 mm 2 mps 590 mmHg 53%

    Day after tomorrow, 16 December, Sunday

    Time Temperature Precipitation Wind Pressure Humidity
    00:00 -15°C° 0 mm 2 mps 590 mmHg 51%
    01:00 -14°C° 0 mm 2 mps 590 mmHg 49%
    02:00 -13°C° 0 mm 2 mps 590 mmHg 50%
    03:00 -12°C° 0 mm 2 mps 590 mmHg 52%
    04:00 -10°C° 0 mm 2 mps 590 mmHg 53%
    05:00 -10°C° 0.2 mm 2 mps 590 mmHg 60%
    06:00 -9°C° 0.2 mm 2 mps 590 mmHg 66%
    07:00 -8°C° 0.2 mm 2 mps 591 mmHg 72%
    08:00 -8°C° 0.6 mm 2 mps 591 mmHg 75%
    09:00 -7°C° 0.6 mm 2 mps 591 mmHg 79%
    10:00 -6°C° 0.6 mm 2 mps 592 mmHg 82%
    11:00 -5°C° 0.1 mm 2 mps 592 mmHg 82%
    12:00 -2°C° 0.1 mm 1 mps 592 mmHg 82%
    13:00 -1°C° 0.1 mm 1 mps 592 mmHg 83%
    14:00 -2°C° 0.4 mm 1 mps 592 mmHg 85%
    15:00 -2°C° 0.4 mm 1 mps 592 mmHg 87%
    16:00 -4°C° 0.4 mm 0 mps 592 mmHg 89%
    17:00 -3°C° 0.8 mm 1 mps 592 mmHg 90%
    18:00 -3°C° 0.8 mm 1 mps 592 mmHg 92%
    19:00 -4°C° 0.8 mm 1 mps 592 mmHg 93%
    20:00 -4°C° 0.4 mm 1 mps 592 mmHg 93%
    21:00 -4°C° 0.4 mm 1 mps 593 mmHg 94%
    22:00 -4°C° 0.4 mm 1 mps 593 mmHg 94%
    23:00 -4°C° 0.3 mm 1 mps 593 mmHg 94%

    17 December, Monday

    Time Temperature Precipitation Wind Pressure Humidity
    00:00 -6°C° 0.3 mm 1 mps 593 mmHg 94%
    01:00 -6°C° 0.3 mm 1 mps 593 mmHg 93%
    02:00 -6°C° 0 mm 1 mps 592 mmHg 93%
    03:00 -7°C° 0 mm 1 mps 592 mmHg 92%
    04:00 -8°C° 0 mm 1 mps 592 mmHg 92%
    05:00 -8°C° 0 mm 1 mps 591 mmHg 90%
    06:00 -9°C° 0 mm 1 mps 591 mmHg 88%
    07:00 -10°C° 0 mm 1 mps 591 mmHg 86%
    08:00 -9°C° 0 mm 1 mps 592 mmHg 83%
    09:00 -8°C° 0 mm 1 mps 593 mmHg 79%
    10:00 -7°C° 0 mm 1 mps 594 mmHg 76%
    11:00 -6°C° 0 mm 1 mps 594 mmHg 74%
    12:00 -4°C° 0 mm 1 mps 595 mmHg 73%
    13:00 -3°C° 0 mm 1 mps 595 mmHg 71%
    14:00 -4°C° 0 mm 1 mps 595 mmHg 76%
    15:00 -6°C° 0 mm 1 mps 594 mmHg 80%
    16:00 -8°C° 0 mm 1 mps 594 mmHg 85%
    17:00 -9°C° 0 mm 1 mps 594 mmHg 85%
    18:00 -10°C° 0 mm 1 mps 594 mmHg 86%
    19:00 -13°C° 0 mm 2 mps 594 mmHg 86%
    20:00 -13°C° 0 mm 2 mps 594 mmHg 84%
    21:00 -13°C° 0 mm 2 mps 595 mmHg 82%
    22:00 -13°C° 0 mm 2 mps 595 mmHg 80%
    23:00 -11°C° 0 mm 1 mps 595 mmHg 80%

    18 December, Tuesday

    Time Temperature Precipitation Wind Pressure Humidity
    00:00 -11°C° 0 mm 1 mps 595 mmHg 80%
    01:00 -11°C° 0 mm 1 mps 595 mmHg 80%
    02:00 -11°C° 0 mm 1 mps 595 mmHg 80%
    03:00 -11°C° 0 mm 1 mps 595 mmHg 79%
    04:00 -11°C° 0 mm 1 mps 595 mmHg 79%
    05:00 -11°C° 0 mm 1 mps 595 mmHg 79%
    06:00 -11°C° 0 mm 1 mps 595 mmHg 79%
    07:00 -11°C° 0 mm 1 mps 596 mmHg 79%
    08:00 -10°C° 0 mm 1 mps 596 mmHg 77%
    09:00 -10°C° 0 mm 2 mps 597 mmHg 75%
    10:00 -8°C° 0 mm 2 mps 598 mmHg 74%
    11:00 -7°C° 0 mm 2 mps 598 mmHg 73%
    12:00 -5°C° 0 mm 2 mps 598 mmHg 72%
    13:00 -4°C° 0 mm 2 mps 598 mmHg 72%
    14:00 -5°C° 0 mm 2 mps 597 mmHg 72%
    15:00 -6°C° 0 mm 2 mps 596 mmHg 72%
    16:00 -8°C° 0 mm 3 mps 596 mmHg 72%
    17:00 -9°C° 0 mm 3 mps 595 mmHg 68%
    18:00 -10°C° 0 mm 3 mps 595 mmHg 65%
    19:00 -10°C° 0 mm 3 mps 595 mmHg 61%
    20:00 -10°C° 0 mm 3 mps 595 mmHg 60%
    21:00 -10°C° 0 mm 3 mps 595 mmHg 59%
    22:00 -10°C° 0 mm 3 mps 595 mmHg 58%
    23:00 -9°C° 0 mm 3 mps 594 mmHg 59%

    19 December, Wednesday

    Time Temperature Precipitation Wind Pressure Humidity
    00:00 -9°C° 0 mm 3 mps 594 mmHg 59%
    01:00 -9°C° 0 mm 3 mps 594 mmHg 60%
    02:00 -9°C° 0 mm 3 mps 594 mmHg 61%
    03:00 -9°C° 0 mm 3 mps 594 mmHg 62%
    04:00 -9°C° 0 mm 3 mps 594 mmHg 63%
    05:00 -8°C° 0 mm 3 mps 594 mmHg 64%
    06:00 -8°C° 0 mm 3 mps 594 mmHg 66%
    07:00 -7°C° 0 mm 2 mps 594 mmHg 67%
    08:00 -7°C° 0 mm 2 mps 594 mmHg 69%
    09:00 -6°C° 0 mm 2 mps 594 mmHg 70%
    10:00 -5°C° 0 mm 2 mps 594 mmHg 72%
    11:00 -5°C° 0 mm 2 mps 594 mmHg 73%
    12:00 -4°C° 0 mm 2 mps 594 mmHg 74%
    13:00 -4°C° 0 mm 3 mps 594 mmHg 76%
    14:00 -4°C° 0 mm 2 mps 593 mmHg 78%
    15:00 -5°C° 0 mm 2 mps 593 mmHg 79%
    16:00 -6°C° 0 mm 2 mps 592 mmHg 81%
    17:00 -6°C° 0 mm 2 mps 592 mmHg 82%
    18:00 -7°C° 0 mm 2 mps 592 mmHg 84%
    19:00 -7°C° 0 mm 2 mps 592 mmHg 85%
    20:00 -7°C° 0.1 mm 2 mps 591 mmHg 86%
    21:00 -7°C° 0.1 mm 2 mps 591 mmHg 87%
    22:00 -7°C° 0.1 mm 2 mps 591 mmHg 88%
    23:00 -7°C° 0.1 mm 2 mps 591 mmHg 89%
    Show more